TimeCST,TemperatureF,Dew PointF,Humidity,Sea Level PressureIn,VisibilityMPH,Wind Direction,Wind SpeedMPH,Gust SpeedMPH,PrecipitationIn,Events,Conditions,WindDirDegrees,DateUTC
12:15 AM,8.6,1.4,73,30.27,10.0,South,10.4,-,N/A,,Overcast,170,2014-01-03 06:15:00
12:35 AM,8.6,1.4,73,30.26,10.0,South,9.2,-,N/A,,Overcast,170,2014-01-03 06:35:00
12:55 AM,10.4,3.2,73,30.26,10.0,South,11.5,-,N/A,,Overcast,180,2014-01-03 06:55:00
1:15 AM,10.4,3.2,73,30.24,10.0,South,12.7,18.4,N/A,,Overcast,180,2014-01-03 07:15:00
1:35 AM,10.4,3.2,73,30.23,10.0,South,12.7,-,N/A,,Overcast,190,2014-01-03 07:35:00
1:55 AM,10.4,3.2,73,30.21,9.0,South,16.1,-,N/A,,Overcast,180,2014-01-03 07:55:00
2:15 AM,10.4,3.2,73,30.20,7.0,South,15.0,-,N/A,,Overcast,180,2014-01-03 08:15:00
2:35 AM,10.4,3.2,73,30.20,5.0,South,11.5,-,N/A,,Overcast,170,2014-01-03 08:35:00
2:55 AM,10.4,3.2,73,30.19,5.0,SSE,12.7,-,N/A,,Overcast,160,2014-01-03 08:55:00
3:15 AM,8.6,3.2,79,30.18,8.0,South,13.8,-,N/A,,Partly Cloudy,170,2014-01-03 09:15:00
3:35 AM,8.6,1.4,73,30.17,10.0,South,11.5,-,N/A,,Clear,170,2014-01-03 09:35:00
3:55 AM,8.6,1.4,73,30.15,10.0,SSE,11.5,-,N/A,,Clear,150,2014-01-03 09:55:00
4:15 AM,8.6,1.4,73,30.13,10.0,SSE,10.4,-,N/A,,Clear,160,2014-01-03 10:15:00
4:35 AM,8.6,1.4,73,30.11,10.0,SSE,10.4,-,N/A,,Clear,160,2014-01-03 10:35:00
4:55 AM,8.6,1.4,73,30.10,10.0,SSE,8.1,-,N/A,,Clear,160,2014-01-03 10:55:00
5:15 AM,8.6,1.4,73,30.09,10.0,South,11.5,-,N/A,,Clear,180,2014-01-03 11:15:00
5:35 AM,8.6,1.4,73,30.07,10.0,South,11.5,-,N/A,,Clear,170,2014-01-03 11:35:00
5:55 AM,8.6,1.4,73,30.05,10.0,South,12.7,-,N/A,,Clear,170,2014-01-03 11:55:00
6:15 AM,8.6,1.4,73,30.03,10.0,South,13.8,19.6,N/A,,Clear,170,2014-01-03 12:15:00
6:35 AM,8.6,1.4,73,30.01,10.0,South,10.4,-,N/A,,Clear,170,2014-01-03 12:35:00
6:55 AM,8.6,1.4,73,30.01,10.0,South,9.2,-,N/A,,Clear,170,2014-01-03 12:55:00
7:15 AM,8.6,3.2,79,29.99,10.0,South,11.5,18.4,N/A,,Clear,170,2014-01-03 13:15:00
7:35 AM,8.6,3.2,79,29.97,10.0,South,12.7,-,N/A,,Clear,170,2014-01-03 13:35:00
7:55 AM,10.4,3.2,73,29.96,10.0,South,11.5,-,N/A,,Clear,180,2014-01-03 13:55:00
8:15 AM,10.4,5.0,79,29.95,8.0,South,13.8,23.0,N/A,,Clear,190,2014-01-03 14:15:00
8:35 AM,10.4,5.0,79,29.95,8.0,SSW,12.7,-,N/A,,Clear,200,2014-01-03 14:35:00
8:55 AM,10.4,5.0,79,29.93,4.0,South,10.4,-,N/A,,Clear,180,2014-01-03 14:55:00
9:15 AM,12.2,6.8,79,29.93,9.0,South,12.7,16.1,N/A,,Clear,190,2014-01-03 15:15:00
9:35 AM,14.0,8.6,79,29.91,10.0,South,15.0,-,N/A,,Clear,190,2014-01-03 15:35:00
9:55 AM,15.8,10.4,79,29.89,10.0,South,17.3,-,N/A,,Clear,180,2014-01-03 15:55:00
10:15 AM,17.6,10.4,73,29.88,10.0,South,15.0,-,N/A,,Clear,190,2014-01-03 16:15:00
10:35 AM,21.2,14.0,74,29.87,10.0,SSW,15.0,20.7,N/A,,Clear,200,2014-01-03 16:35:00
10:55 AM,23.0,15.8,74,29.84,10.0,South,16.1,26.5,N/A,,Clear,190,2014-01-03 16:55:00
11:15 AM,24.8,15.8,69,29.84,10.0,SSW,18.4,25.3,N/A,,Clear,200,2014-01-03 17:15:00
11:35 AM,26.6,17.6,69,29.81,10.0,SSW,21.9,26.5,N/A,,Clear,200,2014-01-03 17:35:00
11:55 AM,26.6,19.4,74,29.79,10.0,SSW,16.1,21.9,N/A,,Clear,200,2014-01-03 17:55:00
12:15 PM,28.4,19.4,69,29.75,10.0,SSW,23.0,27.6,N/A,,Clear,200,2014-01-03 18:15:00
12:35 PM,30.2,21.2,69,29.73,10.0,SSW,23.0,31.1,N/A,,Clear,200,2014-01-03 18:35:00
12:55 PM,30.2,21.2,69,29.71,10.0,SSW,18.4,27.6,N/A,,Clear,200,2014-01-03 18:55:00
1:15 PM,32.0,21.2,64,29.70,10.0,SSW,16.1,25.3,N/A,,Clear,200,2014-01-03 19:15:00
1:35 PM,32.0,21.2,64,29.68,10.0,South,20.7,26.5,N/A,,Clear,190,2014-01-03 19:35:00
1:55 PM,33.8,23.0,65,29.66,10.0,South,19.6,25.3,N/A,,Clear,190,2014-01-03 19:55:00
2:15 PM,33.8,24.8,70,29.64,10.0,South,20.7,26.5,N/A,,Clear,190,2014-01-03 20:15:00
2:35 PM,33.8,24.8,70,29.63,10.0,SSW,18.4,27.6,N/A,,Clear,200,2014-01-03 20:35:00
2:55 PM,35.6,24.8,65,29.62,10.0,SSW,19.6,26.5,N/A,,Clear,200,2014-01-03 20:55:00
3:15 PM,35.6,24.8,65,29.61,10.0,SSW,18.4,23.0,N/A,,Clear,200,2014-01-03 21:15:00
3:35 PM,35.6,24.8,65,29.59,10.0,South,18.4,25.3,N/A,,Clear,190,2014-01-03 21:35:00
3:55 PM,35.6,26.6,70,29.59,10.0,South,17.3,-,0.01,,Clear,190,2014-01-03 21:55:00
4:15 PM,35.6,26.6,70,29.58,10.0,South,16.1,23.0,0.01,,Clear,190,2014-01-03 22:15:00
4:35 PM,37.4,26.6,65,29.57,10.0,South,15.0,20.7,0.01,,Clear,190,2014-01-03 22:35:00
4:55 PM,35.6,26.6,70,29.57,10.0,SSW,15.0,-,0.01,,Clear,200,2014-01-03 22:55:00
5:15 PM,35.6,26.6,70,29.57,10.0,South,10.4,16.1,N/A,,Clear,190,2014-01-03 23:15:00
5:35 PM,35.6,26.6,70,29.56,10.0,SSW,11.5,-,N/A,,Clear,200,2014-01-03 23:35:00
5:55 PM,35.6,26.6,70,29.57,10.0,South,11.5,-,N/A,,Clear,190,2014-01-03 23:55:00
6:15 PM,35.6,26.6,70,29.57,10.0,South,11.5,-,N/A,,Clear,190,2014-01-04 00:15:00
6:35 PM,33.8,26.6,75,29.56,10.0,SSW,12.7,-,N/A,,Clear,200,2014-01-04 00:35:00
6:55 PM,35.6,26.6,70,29.55,10.0,South,13.8,-,N/A,,Clear,190,2014-01-04 00:55:00
7:15 PM,35.6,26.6,70,29.54,10.0,SSW,12.7,16.1,N/A,,Clear,200,2014-01-04 01:15:00
7:35 PM,35.6,26.6,70,29.54,10.0,South,13.8,19.6,N/A,,Clear,190,2014-01-04 01:35:00
7:55 PM,35.6,26.6,70,29.54,10.0,SSW,13.8,-,N/A,,Clear,200,2014-01-04 01:55:00
8:15 PM,35.6,26.6,70,29.54,10.0,SSW,11.5,-,N/A,,Clear,210,2014-01-04 02:15:00
8:35 PM,35.6,26.6,70,29.54,10.0,SSW,10.4,-,N/A,,Clear,210,2014-01-04 02:35:00
8:55 PM,35.6,26.6,70,29.54,10.0,SSW,9.2,-,N/A,,Clear,210,2014-01-04 02:55:00
9:15 PM,35.6,26.6,70,29.56,10.0,WSW,10.4,-,N/A,,Clear,240,2014-01-04 03:15:00
9:35 PM,35.6,26.6,70,29.57,10.0,SW,11.5,-,N/A,,Clear,230,2014-01-04 03:35:00
9:55 PM,35.6,26.6,70,29.58,10.0,WSW,9.2,-,N/A,,Clear,240,2014-01-04 03:55:00
10:15 PM,33.8,26.6,75,29.58,10.0,WSW,5.8,-,N/A,,Clear,250,2014-01-04 04:15:00
10:35 PM,33.8,24.8,70,29.59,10.0,WSW,4.6,-,N/A,,Clear,240,2014-01-04 04:35:00
10:55 PM,33.8,24.8,70,29.59,10.0,SW,4.6,-,N/A,,Clear,220,2014-01-04 04:55:00
11:15 PM,33.8,24.8,70,29.60,10.0,WSW,6.9,-,N/A,,Clear,250,2014-01-04 05:15:00
11:35 PM,30.2,23.0,75,29.59,10.0,West,3.5,-,N/A,,Clear,280,2014-01-04 05:35:00
11:55 PM,33.8,26.6,75,29.60,10.0,WSW,5.8,-,N/A,,Clear,250,2014-01-04 05:55:00